Stündliche Wetter Celestyny

Heute, 19 Januar, Dienstag

Zeit Temperatur Niederschläge Wind Luftdruck Luftfeuchtigkeit
00:00 -8°C° 0.2 mm 3 m/S 750 mmHg 95%
01:00 -8°C° 0.2 mm 4 m/S 750 mmHg 96%
02:00 -7°C° 0.5 mm 4 m/S 750 mmHg 96%
03:00 -4°C° 0.5 mm 3 m/S 749 mmHg 97%
04:00 -2°C° 0.5 mm 3 m/S 749 mmHg 97%
05:00 -3°C° 0.4 mm 4 m/S 749 mmHg 97%
06:00 -2°C° 0.4 mm 4 m/S 748 mmHg 97%
07:00 -1°C° 0.4 mm 4 m/S 748 mmHg 98%
08:00 -1°C° 0.1 mm 4 m/S 748 mmHg 98%
09:00 -1°C° 0.1 mm 4 m/S 748 mmHg 98%
10:00 -1°C° 0.1 mm 4 m/S 748 mmHg 98%
11:00 -1°C° 0 mm 4 m/S 747 mmHg 98%
12:00 -1°C° 0 mm 4 m/S 747 mmHg 99%
13:00 -1°C° 0 mm 4 m/S 747 mmHg 99%
14:00 -1°C° 0 mm 4 m/S 746 mmHg 98%
15:00 -1°C° 0 mm 4 m/S 746 mmHg 97%
16:00 -2°C° 0 mm 4 m/S 745 mmHg 97%
17:00 -2°C° 0.1 mm 4 m/S 745 mmHg 97%
18:00 -2°C° 0.1 mm 5 m/S 745 mmHg 97%
19:00 -2°C° 0.1 mm 5 m/S 744 mmHg 97%
20:00 -2°C° 0 mm 5 m/S 744 mmHg 96%
21:00 -2°C° 0 mm 5 m/S 744 mmHg 95%
22:00 -2°C° 0 mm 4 m/S 743 mmHg 94%
23:00 -2°C° 0.5 mm 4 m/S 743 mmHg 96%

Morgen, 20 Januar, Mittwoch

Zeit Temperatur Niederschläge Wind Luftdruck Luftfeuchtigkeit
00:00 -1°C° 0.5 mm 5 m/S 743 mmHg 97%
01:00 -1°C° 0.5 mm 5 m/S 743 mmHg 98%
02:00 -1°C° 0.7 mm 5 m/S 742 mmHg 98%
03:00 0°C° 0.7 mm 5 m/S 742 mmHg 99%
04:00 0°C° 0.7 mm 5 m/S 742 mmHg 99%
05:00 0°C° 0 mm 5 m/S 742 mmHg 97%
06:00 0°C° 0 mm 5 m/S 742 mmHg 95%
07:00 0°C° 0 mm 5 m/S 743 mmHg 93%
08:00 0°C° 0 mm 5 m/S 743 mmHg 92%
09:00 0°C° 0 mm 5 m/S 743 mmHg 92%
10:00 0°C° 0 mm 4 m/S 743 mmHg 92%
11:00 0°C° 0 mm 5 m/S 743 mmHg 93%
12:00 0°C° 0 mm 5 m/S 743 mmHg 94%
13:00 0°C° 0 mm 5 m/S 743 mmHg 95%
14:00 0°C° 0 mm 5 m/S 742 mmHg 92%
15:00 0°C° 0 mm 5 m/S 742 mmHg 90%
16:00 0°C° 0 mm 5 m/S 742 mmHg 88%
17:00 0°C° 0 mm 5 m/S 742 mmHg 87%
18:00 0°C° 0 mm 5 m/S 742 mmHg 87%
19:00 0°C° 0 mm 5 m/S 742 mmHg 86%
20:00 0°C° 0 mm 5 m/S 742 mmHg 84%
21:00 0°C° 0 mm 5 m/S 742 mmHg 82%
22:00 -1°C° 0 mm 5 m/S 742 mmHg 81%
23:00 -1°C° 0 mm 4 m/S 742 mmHg 81%

übermorgen, 21 Januar, Donnerstag

Zeit Temperatur Niederschläge Wind Luftdruck Luftfeuchtigkeit
00:00 -1°C° 0 mm 4 m/S 742 mmHg 82%
01:00 -1°C° 0 mm 4 m/S 742 mmHg 83%
02:00 -1°C° 0 mm 4 m/S 742 mmHg 82%
03:00 -1°C° 0 mm 4 m/S 742 mmHg 82%
04:00 -1°C° 0 mm 4 m/S 741 mmHg 81%
05:00 0°C° 0 mm 5 m/S 742 mmHg 83%
06:00 0°C° 0 mm 5 m/S 742 mmHg 84%
07:00 -1°C° 0 mm 6 m/S 742 mmHg 85%
08:00 -1°C° 0 mm 6 m/S 741 mmHg 87%
09:00 -1°C° 0 mm 6 m/S 741 mmHg 89%
10:00 +1°C° 0 mm 6 m/S 741 mmHg 91%
11:00 +1°C° 0 mm 6 m/S 741 mmHg 92%
12:00 +1°C° 0 mm 6 m/S 740 mmHg 93%
13:00 +1°C° 0 mm 6 m/S 740 mmHg 94%
14:00 +1°C° 0 mm 5 m/S 740 mmHg 93%
15:00 0°C° 0 mm 5 m/S 739 mmHg 92%
16:00 0°C° 0 mm 4 m/S 739 mmHg 92%
17:00 0°C° 0 mm 4 m/S 739 mmHg 91%
18:00 -1°C° 0 mm 4 m/S 739 mmHg 90%
19:00 -1°C° 0 mm 4 m/S 739 mmHg 89%
20:00 -1°C° 0 mm 4 m/S 739 mmHg 89%
21:00 -1°C° 0 mm 5 m/S 739 mmHg 88%
22:00 -1°C° 0 mm 5 m/S 739 mmHg 87%
23:00 -1°C° 0 mm 5 m/S 738 mmHg 86%

22 Januar, Freitag

Zeit Temperatur Niederschläge Wind Luftdruck Luftfeuchtigkeit
00:00 -1°C° 0 mm 5 m/S 738 mmHg 85%
01:00 0°C° 0 mm 5 m/S 738 mmHg 83%
02:00 0°C° 0 mm 5 m/S 737 mmHg 85%
03:00 0°C° 0 mm 5 m/S 737 mmHg 87%
04:00 +1°C° 0 mm 5 m/S 736 mmHg 89%
05:00 +1°C° 0 mm 5 m/S 736 mmHg 89%
06:00 +1°C° 0 mm 5 m/S 735 mmHg 89%
07:00 +1°C° 0 mm 5 m/S 735 mmHg 89%
08:00 +1°C° 0 mm 5 m/S 735 mmHg 91%
09:00 +1°C° 0 mm 4 m/S 734 mmHg 93%
10:00 +1°C° 0 mm 4 m/S 734 mmHg 95%
11:00 +1°C° 0 mm 4 m/S 734 mmHg 95%
12:00 +1°C° 0 mm 4 m/S 734 mmHg 95%
13:00 +1°C° 0 mm 5 m/S 734 mmHg 94%
14:00 +1°C° 0 mm 4 m/S 734 mmHg 92%
15:00 +1°C° 0 mm 4 m/S 734 mmHg 90%
16:00 +1°C° 0 mm 4 m/S 734 mmHg 88%
17:00 0°C° 0 mm 4 m/S 735 mmHg 89%
18:00 0°C° 0 mm 4 m/S 735 mmHg 91%
19:00 0°C° 0 mm 4 m/S 735 mmHg 92%
20:00 +1°C° 0 mm 3 m/S 736 mmHg 91%
21:00 +1°C° 0 mm 3 m/S 737 mmHg 91%
22:00 +1°C° 0 mm 2 m/S 737 mmHg 90%
23:00 0°C° 0 mm 3 m/S 738 mmHg 90%

23 Januar, Samstag

Zeit Temperatur Niederschläge Wind Luftdruck Luftfeuchtigkeit
00:00 0°C° 0 mm 3 m/S 738 mmHg 90%
01:00 0°C° 0 mm 3 m/S 739 mmHg 90%
02:00 0°C° 0 mm 3 m/S 739 mmHg 90%
03:00 -1°C° 0 mm 3 m/S 739 mmHg 90%
04:00 -1°C° 0 mm 3 m/S 740 mmHg 90%
05:00 -1°C° 0 mm 3 m/S 740 mmHg 90%
06:00 -1°C° 0 mm 3 m/S 740 mmHg 90%
07:00 -2°C° 0 mm 3 m/S 740 mmHg 90%
08:00 -1°C° 0 mm 3 m/S 740 mmHg 88%
09:00 -1°C° 0 mm 3 m/S 740 mmHg 86%
10:00 0°C° 0 mm 3 m/S 740 mmHg 84%
11:00 0°C° 0 mm 3 m/S 740 mmHg 84%
12:00 +1°C° 0 mm 3 m/S 740 mmHg 84%
13:00 +1°C° 0 mm 3 m/S 740 mmHg 84%
14:00 0°C° 0 mm 3 m/S 739 mmHg 86%
15:00 0°C° 0 mm 3 m/S 739 mmHg 88%
16:00 -1°C° 0 mm 3 m/S 738 mmHg 91%
17:00 -1°C° 0 mm 3 m/S 738 mmHg 91%
18:00 -1°C° 0 mm 3 m/S 738 mmHg 90%
19:00 -1°C° 0 mm 3 m/S 738 mmHg 90%
20:00 -1°C° 0 mm 3 m/S 737 mmHg 90%
21:00 -1°C° 0 mm 3 m/S 737 mmHg 89%
22:00 -1°C° 0 mm 3 m/S 737 mmHg 89%
23:00 -1°C° 0 mm 3 m/S 736 mmHg 90%

24 Januar, Sonntag

Zeit Temperatur Niederschläge Wind Luftdruck Luftfeuchtigkeit
00:00 -1°C° 0 mm 3 m/S 735 mmHg 91%
01:00 -1°C° 0 mm 3 m/S 734 mmHg 92%
02:00 -1°C° 0.4 mm 3 m/S 734 mmHg 94%
03:00 -1°C° 0.4 mm 3 m/S 733 mmHg 95%
04:00 -1°C° 0.4 mm 3 m/S 732 mmHg 96%
05:00 -1°C° 0.3 mm 3 m/S 732 mmHg 96%
06:00 -1°C° 0.3 mm 3 m/S 731 mmHg 96%
07:00 -1°C° 0.3 mm 3 m/S 731 mmHg 96%
08:00 -1°C° 0 mm 3 m/S 731 mmHg 95%
09:00 -2°C° 0 mm 4 m/S 731 mmHg 94%
10:00 -2°C° 0 mm 4 m/S 731 mmHg 92%
11:00 -2°C° 0 mm 5 m/S 731 mmHg 93%
12:00 -2°C° 0 mm 6 m/S 731 mmHg 94%
13:00 -2°C° 0 mm 6 m/S 731 mmHg 95%
14:00 -2°C° 0 mm 6 m/S 731 mmHg 93%
15:00 -2°C° 0 mm 6 m/S 731 mmHg 90%
16:00 -2°C° 0 mm 6 m/S 732 mmHg 88%
17:00 -2°C° 0 mm 6 m/S 731 mmHg 87%
18:00 -2°C° 0 mm 6 m/S 731 mmHg 86%
19:00 -2°C° 0 mm 7 m/S 731 mmHg 84%
20:00 -3°C° 0 mm 7 m/S 732 mmHg 84%
21:00 -3°C° 0 mm 7 m/S 732 mmHg 83%
22:00 -4°C° 0 mm 8 m/S 732 mmHg 83%
23:00 -4°C° 0.1 mm 8 m/S 732 mmHg 84%
Mehr zeigen

Wir brauchen deine Erlaubnis

Meteoprog und unser Service Anbieter werden persönliche Daten aufbewahren, so wie Cookies, Geräte Bezeichnung oder ähnliche Technologien von deinem Gerät und Prozess, so wie Persönliche Daten Inhalte und Werbungen, genauso wie social Media und den Verkehr zu analysieren.

  • Aufbewahrung und/oder Zugang zu deiner Geräte Informationen.

    Cookies, Geräte Bezeichnung oder andere Informationen, können aufbewahrt oder Zugang zu deinem Gerät erhalten, für den Grund, der oben angegeben wird.

  • Personalisierte Werbung und Inhalte, Messungen, Einblick in das Publikum und Produkt Entwicklung.

    Werbungen und Inhalte können personalisiert werden, basierend auf ein Profil. Mehr Daten können besser personalisierte Werbungen und Inhalte hinzufügen. Werbung und Inhalte können gezeigt und gemessen werden. Einblicke über das Publikum, welche die Werbung gesehen haben und den Inhalt, können abgeleitet werden. So wie Daten können genutzt werden, um es zu verbessern oder die Benutzer Erfahrung zu verbessern das System und die Software.

Wenn du “Ich stimme zu” klickst, erlaubst du uns, die Cookies zu benutzen die Geräte Bezeichnung, den Web oder ähnliche Technologien zu benutzen. Deine Settings, können in deinem Gerät bei deinem Browser geändert werden.

Für den bestimmten Zweck, berechtigten Interessen beruhen darauf, mehr als auf den Inhalt. Du kannst mehr darüber in unseren Privaten und Cookie Politik lesen.